CW8440 Weather Reports


time (UTC)temp
F
wind
direction
speed
knots
gust
knots
rain 1hr
in
rain 24hr
in
rain mn
in
humidity
%
barometer
mb
20260507155019 56 195 4.3 8.7 0.00 0.54 0.10 73 1004.4
20260507154751 57 128 2.6 7.0 0.00 0.54 0.10 74 1004.5
20260507154019 57 173 2.6 6.1 0.00 0.54 0.10 70 1004.4
20260507153525 57 54 2.6 6.1 0.00 0.54 0.10 73 1004.6
20260507153019 57 309 1.7 4.3 0.00 0.54 0.10 70 1004.7
20260507152520 57 100 0.9 4.3 0.00 0.54 0.10 71 1004.7
20260507152019 57 42 1.7 7.0 0.00 0.54 0.10 65 1004.7
20260507151520 57 38 1.7 7.0 0.00 0.54 0.10 68 1004.8
20260507151020 57 0 1.7 7.0 0.00 0.54 0.10 67 1004.8
20260507150523 57 314 1.7 6.1 0.00 0.54 0.10 72 1004.7
20260507150519 57 315 1.7 7.0 0.00 0.54 0.10 70 1004.9
20260507145517 57 328 1.7 7.0 0.00 0.54 0.10 75 1004.6
20260507145017 56 304 1.7 7.0 0.00 0.54 0.10 77 1004.6
20260507144517 56 300 1.7 5.2 0.00 0.54 0.10 77 1004.7
20260507144249 55 321 1.7 7.8 0.00 0.54 0.10 77 1004.8
20260507143517 55 312 1.7 7.8 0.00 0.54 0.10 76 1004.8
20260507143018 55 312 2.6 7.8 0.00 0.54 0.10 75 1004.8
20260507142517 55 317 1.7 7.8 0.00 0.54 0.10 77 1004.9
20260507142018 54 288 1.7 6.1 0.00 0.54 0.10 78 1004.9
20260507141518 54 286 1.7 6.1 0.00 0.54 0.10 81 1005.2
20260507141018 53 280 1.7 7.0 0.00 0.54 0.10 82 1005.2
20260507140524 52 252 1.7 7.0 0.00 0.54 0.10 84 1005.4
20260507140519 53 257 0.9 7.0 0.00 0.54 0.10 82 1005.1
20260507135518 52 294 1.7 7.0 0.00 0.54 0.10 85 1005.4
20260507135017 52 300 1.7 6.1 0.00 0.54 0.10 88 1005.4
20260507134513 51 290 1.7 6.1 0.00 0.54 0.10 88 1005.2
20260507134247 50 288 0.9 4.3 0.00 0.54 0.10 88 1005.2
20260507133513 49 287 0.9 7.0 0.00 0.54 0.10 89 1005.7
20260507133011 49 287 1.7 7.0 0.00 0.54 0.10 90 1005.8
20260507132513 48 267 2.6 7.0 0.00 0.54 0.10 90 1006.0
20260507132241 48 309 2.6 7.0 0.00 0.54 0.10 90 1005.8
20260507131513 48 296 2.6 6.1 0.00 0.54 0.10 90 1005.7
20260507131013 48 299 1.7 6.1 0.00 0.54 0.10 90 1005.3
20260507130511 48 313 1.7 6.1 0.00 0.54 0.10 91 1005.1
20260507130012 48 304 2.6 6.1 0.00 0.54 0.10 91 1005.2
20260507125512 48 279 1.7 6.1 0.00 0.54 0.10 91 1005.2
20260507125013 48 298 1.7 5.2 0.00 0.54 0.10 91 1005.2
20260507124510 48 314 1.7 6.1 0.00 0.54 0.10 92 1005.4
20260507124010 48 313 1.7 6.1 0.00 0.54 0.10 92 1005.8
20260507123509 48 301 1.7 6.1 0.00 0.54 0.10 92 1005.3
20260507123243 48 301 1.7 6.1 0.00 0.54 0.10 92 1005.4
20260507122509 47 288 1.7 5.2 0.00 0.54 0.10 93 1005.2
20260507122010 47 313 1.7 4.3 0.00 0.54 0.10 93 1005.0
20260507121509 47 314 1.7 7.0 0.00 0.54 0.10 93 1005.0
20260507121241 46 314 2.6 7.0 0.00 0.54 0.10 93 1004.9
20260507120511 46 327 3.5 7.0 0.00 0.54 0.10 93 1005.1
20260507120009 46 299 3.5 7.0 0.00 0.54 0.10 93 1005.3
20260507115510 45 296 3.5 7.8 0.00 0.54 0.10 93 1005.3
20260507115007 45 302 2.6 7.8 0.00 0.54 0.10 93 1005.3
20260507114508 45 310 3.5 7.8 0.00 0.54 0.10 93 1005.4
20260507114238 45 309 3.5 7.8 0.00 0.54 0.10 93 1005.3
20260507113740 46 298 3.5 7.8 0.00 0.54 0.10 93 1005.7
20260507113241 46 308 3.5 7.8 0.00 0.54 0.10 93 1005.5
20260507112507 46 302 2.6 7.8 0.00 0.54 0.10 94 1005.4
20260507112008 46 319 2.6 6.1 0.00 0.54 0.10 94 1005.4
20260507111507 46 303 1.7 6.1 0.00 0.54 0.10 94 1005.9
20260507111008 46 277 1.7 6.1 0.00 0.54 0.10 94 1005.8
20260507110507 46 277 1.7 6.1 0.00 0.54 0.10 94 1005.6
20260507110238 46 277 1.7 7.0 0.00 0.54 0.10 94 1005.6
20260507105507 46 277 1.7 7.0 0.00 0.54 0.10 94 1005.6
20260507105237 46 294 0.9 4.3 0.00 0.54 0.10 94 1005.6
20260507105125 46 296 0.9 4.3 0.00 0.54 0.10 94 1005.1
20260507104006 46 295 1.7 5.2 0.00 0.54 0.10 94 1005.1
20260507103736 46 284 2.6 6.1 0.00 0.54 0.10 94 1005.0
20260507103237 46 324 2.6 7.0 0.00 0.54 0.10 94 1005.0
20260507102505 46 302 1.7 7.0 0.00 0.54 0.10 94 1004.8
20260507102007 46 302 1.7 7.0 0.00 0.54 0.10 94 1004.6
20260507101504 46 306 0.9 7.8 0.00 0.54 0.10 94 1004.2
20260507101002 46 311 0.9 7.8 0.00 0.54 0.10 94 1004.6
20260507100503 46 311 1.7 7.8 0.00 0.54 0.10 94 1004.6
20260507100003 46 277 1.7 7.8 0.00 0.54 0.10 94 1004.4
20260507095504 46 267 1.7 7.8 0.00 0.54 0.10 94 1004.4
20260507095003 46 296 1.7 10.4 0.00 0.54 0.10 94 1004.3
20260507094503 46 315 2.6 10.4 0.01 0.54 0.10 94 1004.3
20260507094002 46 313 4.3 10.4 0.01 0.54 0.10 94 1004.4
20260507093504 46 305 5.2 10.4 0.01 0.54 0.10 94 1004.4
20260507093004 46 288 4.3 10.4 0.01 0.54 0.10 94 1004.5
20260507092501 46 314 3.5 11.3 0.01 0.54 0.10 94 1004.3
20260507092002 46 302 4.3 11.3 0.01 0.54 0.10 94 1004.3
20260507091501 46 315 5.2 11.3 0.01 0.54 0.10 94 1004.6
20260507091000 47 294 5.2 11.3 0.01 0.54 0.10 94 1004.5
20260507090735 47 284 4.3 10.4 0.01 0.54 0.10 94 1004.8
20260507090000 47 306 3.5 7.8 0.01 0.54 0.10 94 1004.6
20260507085501 47 309 3.5 7.8 0.01 0.54 0.10 94 1004.6
20260507085001 47 309 4.3 9.6 0.01 0.54 0.10 94 1004.2
20260507084502 47 300 4.3 9.6 0.00 0.53 0.09 94 1004.2
20260507084002 47 291 3.5 9.6 0.00 0.53 0.09 94 1003.9
20260507083731 47 306 3.5 9.6 0.00 0.53 0.09 94 1003.8
20260507083006 47 304 3.5 8.7 0.00 0.53 0.09 94 1003.8
20260507083000 47 309 3.5 7.8 0.00 0.53 0.09 94 1003.9
20260507081958 47 284 4.3 8.7 0.00 0.53 0.09 94 1004.0
20260507081459 47 316 4.3 8.7 0.00 0.53 0.09 94 1004.0
20260507080959 47 319 3.5 8.7 0.00 0.53 0.09 94 1003.9
20260507080459 48 302 3.5 9.6 0.00 0.53 0.09 94 1003.7
20260507080000 48 310 3.5 9.6 0.00 0.53 0.09 94 1003.8
20260507075459 48 303 3.5 9.6 0.00 0.53 0.09 94 1003.8
20260507074959 48 279 3.5 9.6 0.01 0.53 0.09 94 1003.8
20260507074458 48 294 3.5 7.8 0.01 0.53 0.09 94 1003.8
20260507074004 48 311 2.6 7.8 0.01 0.53 0.09 94 1003.5
20260507074000 48 273 2.6 7.8 0.01 0.53 0.09 94 1003.5
20260507072959 48 322 2.6 7.8 0.02 0.53 0.09 94 1003.3
20260507072500 48 292 2.6 7.8 0.03 0.53 0.09 94 1003.4
20260507071958 48 296 1.7 4.3 0.05 0.53 0.09 95 1003.2
20260507071730 48 322 1.7 7.8 0.06 0.53 0.09 94 1003.0
20260507071229 48 302 2.6 7.8 0.07 0.53 0.09 94 1002.8
20260507070501 48 269 2.6 7.8 0.07 0.53 0.09 95 1003.1
20260507065958 47 276 2.6 7.8 0.07 0.53 0.09 95 1003.2
20260507065730 47 288 3.5 7.8 0.08 0.53 0.09 94 1003.0
20260507064959 47 252 4.3 7.8 0.07 0.52 0.08 94 1003.3
20260507064500 47 257 3.5 7.8 0.07 0.52 0.08 94 1003.2
20260507063958 47 275 3.5 11.3 0.07 0.52 0.08 94 1003.1
20260507063501 47 273 4.3 11.3 0.08 0.52 0.08 94 1003.2
20260507063231 47 294 4.3 11.3 0.07 0.51 0.07 94 1003.3
20260507062458 47 232 5.2 11.3 0.06 0.50 0.06 94 1003.5
20260507061958 47 244 5.2 9.6 0.04 0.48 0.04 94 1003.4
20260507061459 47 232 5.2 10.4 0.03 0.47 0.03 94 1003.3
20260507061230 47 256 4.3 10.4 0.02 0.46 0.03 94 1003.4
20260507060731 47 240 5.2 10.4 0.02 0.46 0.02 94 1003.3
20260507055959 47 272 5.2 10.4 0.02 0.46 0.02 94 1003.6
20260507055729 47 294 5.2 10.4 0.01 0.45 0.02 94 1003.9
20260507055001 47 243 6.1 13.9 0.01 0.45 0.01 94 1003.7
20260507054459 47 223 6.1 13.9 0.01 0.45 0.01 94 1003.6
20260507054000 48 205 6.1 14.8 0.01 0.45 0.01 94 1003.7
20260507053500 48 232 4.3 14.8 0.00 0.44 0.00 94 1003.9
20260507053000 47 251 5.2 15.6 0.00 0.44 0.00 94 1003.8
20260507052459 47 280 7.0 15.6 0.00 0.44 0.00 94 1003.9
20260507052001 47 216 7.8 14.8 0.00 0.44 0.00 94 1003.6
20260507051500 47 209 7.8 16.5 0.00 0.44 0.00 94 1003.7
20260507051000 47 268 7.8 16.5 0.00 0.44 0.00 94 1003.7
20260507050459 47 249 7.8 16.5 0.00 0.44 0.00 94 1003.7
20260507045959 47 250 7.8 16.5 0.00 0.44 0.00 94 1003.8
20260507045458 47 205 7.8 15.6 0.00 0.44 0.00 94 1003.8
20260507044959 47 225 7.0 15.6 0.00 0.44 0.00 94 1003.7
20260507044458 48 178 6.1 17.4 0.00 0.44 0.00 94 1003.8
20260507044231 48 204 7.0 17.4 0.00 0.44 0.00 94 1003.7
20260507044121 48 245 7.8 20.0 0.00 0.44 0.00 94 1003.7
20260507043231 48 202 8.7 20.0 0.00 0.44 0.00 94 1003.7
20260507042458 48 213 10.4 20.0 0.00 0.44 0.00 94 1003.7
20260507041959 48 207 10.4 20.0 0.01 0.44 0.00 94 1003.8
20260507041500 48 238 9.6 19.1 0.01 0.44 0.00 94 1003.9
20260507040959 48 212 10.4 19.1 0.01 0.44 0.00 94 1003.9
20260507040459 48 186 10.4 19.1 0.01 0.44 0.00 94 1003.9
20260507040000 48 244 11.3 22.6 0.01 0.44 0.44 94 1004.1
20260507035458 48 228 10.4 22.6 0.01 0.44 0.44 94 1004.1
20260507035000 49 196 11.3 22.6 0.02 0.44 0.44 94 1004.0
20260507034459 49 202 11.3 22.6 0.02 0.44 0.44 94 1004.1
20260507033958 49 192 12.2 24.3 0.03 0.44 0.44 94 1004.2
20260507033459 49 189 11.3 24.3 0.03 0.44 0.44 94 1004.1
20260507033231 49 236 11.3 22.6 0.04 0.44 0.44 94 1004.3
20260507032458 48 195 12.2 22.6 0.05 0.44 0.44 94 1004.1
20260507031958 48 168 12.2 20.9 0.05 0.43 0.43 94 1004.4
20260507031500 48 191 12.2 20.9 0.06 0.43 0.43 94 1004.6
20260507030958 48 205 11.3 20.9 0.07 0.43 0.43 94 1004.7
20260507030459 47 209 11.3 20.9 0.09 0.43 0.43 94 1004.7
20260507025957 47 202 10.4 19.1 0.11 0.43 0.43 94 1004.8
20260507025457 47 155 9.6 19.1 0.13 0.43 0.43 94 1004.9
20260507024956 47 175 9.6 18.2 0.16 0.42 0.42 94 1004.9
20260507024456 47 177 9.6 18.2 0.19 0.42 0.42 94 1004.9
20260507023956 46 182 8.7 18.2 0.20 0.41 0.41 94 1005.1
20260507023727 46 182 8.7 16.5 0.22 0.41 0.41 94 1005.2
20260507022956 46 196 8.7 17.4 0.24 0.40 0.40 93 1005.3
20260507022500 46 186 7.8 17.4 0.24 0.39 0.40 93 1005.4
20260507021957 47 184 8.7 16.5 0.24 0.38 0.38 93 1005.3
20260507021458 47 194 8.7 15.6 0.24 0.37 0.37 93 1005.5
20260507020956 47 185 7.8 16.5 0.26 0.36 0.36 93 1005.6
20260507020457 47 190 9.6 20.0 0.25 0.34 0.34 93 1005.7
20260507015958 47 178 10.4 20.0 0.23 0.32 0.32 93 1005.8
20260507015729 47 142 10.4 19.1 0.22 0.30 0.30 93 1005.9
20260507014957 47 175 10.4 19.1 0.19 0.26 0.27 93 1006.1
20260507014456 47 187 10.4 22.6 0.17 0.23 0.24 93 1006.2
20260507013958 47 181 9.6 22.6 0.16 0.21 0.21 93 1006.4
20260507013456 47 153 7.8 17.4 0.15 0.19 0.19 93 1006.5
20260507012957 47 185 7.8 17.4 0.13 0.16 0.17 93 1006.7
20260507012455 47 187 8.7 17.4 0.12 0.15 0.15 93 1006.6
20260507011454 47 196 8.7 17.4 0.10 0.13 0.13 93 1006.9
20260507010954 47 213 8.7 19.1 0.07 0.10 0.11 93 1007.0
20260507010454 47 170 9.6 20.0 0.07 0.09 0.09 93 1007.0
20260507005954 47 185 9.6 20.0 0.08 0.09 0.09 93 1007.1
20260507005454 47 192 9.6 19.1 0.07 0.08 0.08 93 1007.2
20260507004954 47 172 8.7 19.1 0.07 0.07 0.07 93 1007.2
20260507004728 47 174 8.7 19.1 0.06 0.06 0.06 93 1007.2
20260507003952 47 161 9.6 19.1 0.05 0.05 0.05 93 1007.5
20260507003453 47 211 8.7 19.1 0.04 0.04 0.04 92 1007.6
20260507002952 47 170 9.6 19.1 0.03 0.03 0.03 92 1007.6
20260507002453 47 192 9.6 18.2 0.03 0.03 0.03 92 1007.7
20260507001952 47 182 8.7 18.2 0.03 0.03 0.03 92 1007.7
20260507001453 47 188 8.7 18.2 0.03 0.03 0.03 92 1007.8
20260507000952 47 181 8.7 18.2 0.03 0.03 0.03 92 1007.7
20260507000457 47 225 7.8 17.4 0.01 0.01 0.01 92 1007.7
20260507000453 47 227 7.8 17.4 0.02 0.02 0.02 92 1007.7
20260506235451 48 183 8.7 16.5 0.01 0.01 0.01 92 1008.0
20260506234950 48 201 8.7 16.5 0.00 0.00 0.00 92 1007.9
20260506234449 47 196 8.7 16.5 0.00 0.00 0.00 92 1008.0
20260506233948 47 215 8.7 16.5 0.00 0.00 0.00 92 1007.7
20260506233447 47 189 8.7 16.5 0.00 0.00 0.00 92 1008.0
20260506233221 47 174 7.8 16.5 0.00 0.00 0.00 92 1008.1
20260506232718 47 200 7.8 16.5 0.00 0.00 0.00 92 1007.9
20260506232219 47 225 7.8 16.5 0.00 0.00 0.00 92 1008.0
20260506231720 47 198 7.8 20.0 0.00 0.00 0.00 92 1008.0
20260506231218 47 182 7.8 20.0 0.00 0.00 0.00 92 1008.1
20260506230446 47 197 7.0 15.6 0.00 0.00 0.00 92 1008.0
20260506230217 47 190 7.8 15.6 0.00 0.00 0.00 92 1007.9
20260506225446 48 172 8.7 19.1 0.00 0.00 0.00 92 1007.6
20260506225218 48 197 9.6 19.1 0.00 0.00 0.00 92 1008.2
20260506224447 48 180 8.7 19.1 0.00 0.00 0.00 92 1008.2
20260506223945 48 174 8.7 19.1 0.00 0.00 0.00 92 1008.4
20260506223447 48 204 8.7 19.1 0.00 0.00 0.00 91 1008.5
20260506223218 48 188 7.8 16.5 0.00 0.00 0.00 91 1008.7
20260506223109 48 183 7.8 19.1 0.00 0.00 0.00 91 1008.4
20260506221946 48 203 7.8 19.1 0.00 0.00 0.00 91 1008.9
20260506221446 49 207 9.6 20.9 0.00 0.00 0.00 91 1008.8
20260506220947 49 186 10.4 20.9 0.00 0.00 0.00 91 1008.9
20260506220719 49 184 11.3 22.6 0.00 0.00 0.00 91 1009.0
20260506215947 49 158 10.4 22.6 0.00 0.00 0.00 91 1009.0
20260506215445 49 182 10.4 24.3 0.00 0.00 0.00 91 1009.0
20260506214946 49 207 11.3 24.3 0.00 0.00 0.00 91 1009.1
20260506214718 49 178 10.4 20.9 0.00 0.00 0.00 91 1009.0
20260506213947 49 191 8.7 19.1 0.00 0.00 0.00 91 1009.1
20260506213447 49 191 8.7 20.0 0.00 0.00 0.00 91 1009.3
20260506212948 50 228 9.6 20.0 0.00 0.00 0.00 90 1009.3
20260506212447 50 157 10.4 20.0 0.00 0.00 0.00 91 1009.1
20260506212218 50 196 9.6 20.0 0.00 0.00 0.00 90 1009.1
20260506211720 50 198 8.7 21.7 0.00 0.00 0.00 90 1009.0
20260506210947 50 193 9.6 21.7 0.00 0.00 0.00 91 1009.1
20260506210718 50 219 10.4 22.6 0.00 0.00 0.00 91 1009.3
20260506205944 49 202 9.6 22.6 0.00 0.00 0.00 91 1009.3
20260506205443 49 192 9.6 21.7 0.00 0.00 0.00 91 1009.3
20260506204944 48 179 9.6 21.7 0.00 0.00 0.00 91 1009.0
20260506204445 48 202 10.4 21.7 0.00 0.00 0.00 91 1008.6
20260506203941 48 171 10.4 20.0 0.00 0.00 0.00 91 1008.6
20260506203443 48 194 10.4 20.0 0.00 0.00 0.00 91 1008.6
20260506202942 48 192 10.4 20.0 0.00 0.00 0.00 90 1008.3
20260506202442 49 200 11.3 21.7 0.00 0.00 0.00 90 1008.2
20260506201942 49 143 12.2 21.7 0.00 0.00 0.00 91 1008.3
20260506201713 49 156 11.3 24.3 0.00 0.00 0.00 90 1008.3
20260506200941 49 197 11.3 24.3 0.00 0.00 0.00 90 1008.3
20260506200442 49 184 11.3 23.5 0.00 0.00 0.00 90 1008.2
20260506200212 49 184 10.4 23.5 0.00 0.00 0.00 90 1008.1
20260506195441 49 198 10.4 20.0 0.00 0.00 0.00 90 1008.2
20260506194941 50 184 10.4 20.0 0.00 0.00 0.00 89 1008.4
20260506194711 50 205 10.4 24.3 0.00 0.00 0.00 89 1008.4
20260506193941 50 214 10.4 24.3 0.00 0.00 0.00 89 1008.7
20260506193712 50 189 9.6 20.0 0.00 0.00 0.00 89 1008.8
20260506193214 50 189 10.4 19.1 0.00 0.00 0.00 89 1008.9
20260506192442 50 193 10.4 19.1 0.00 0.00 0.00 89 1008.9
20260506191941 50 196 9.6 18.2 0.00 0.00 0.00 88 1008.9
20260506191443 51 180 9.6 18.2 0.00 0.00 0.00 88 1009.0
20260506190943 51 186 8.7 17.4 0.00 0.00 0.00 89 1009.0
20260506190442 51 190 8.7 17.4 0.00 0.00 0.00 89 1009.0
20260506185940 51 199 7.8 16.5 0.00 0.00 0.00 89 1009.2
20260506185441 51 215 8.7 18.2 0.00 0.00 0.00 88 1009.2
20260506185213 51 205 9.6 18.2 0.00 0.00 0.00 89 1009.3
20260506184441 51 182 7.8 15.6 0.00 0.00 0.00 89 1009.3
20260506183940 51 215 7.0 15.6 0.00 0.00 0.00 89 1009.5
20260506183447 51 205 5.2 17.4 0.00 0.00 0.00 89 1009.6
20260506183442 51 193 6.1 15.6 0.00 0.00 0.00 89 1009.5
20260506183102 51 179 5.2 17.4 0.00 0.00 0.00 89 1009.6
20260506181942 51 165 5.2 12.2 0.00 0.00 0.00 88 1009.7
20260506181713 51 179 5.2 12.2 0.00 0.00 0.00 88 1009.8
20260506180941 51 174 5.2 12.2 0.00 0.00 0.00 88 1009.8
20260506180441 51 170 5.2 12.2 0.00 0.00 0.00 88 1009.8
20260506175940 51 200 5.2 12.2 0.00 0.00 0.00 88 1010.0
20260506175442 52 185 6.1 12.2 0.00 0.00 0.00 88 1010.0
20260506174940 52 217 7.0 13.0 0.00 0.00 0.00 88 1010.1
20260506174441 52 173 7.0 18.2 0.00 0.00 0.00 87 1010.0
20260506173940 52 181 7.0 18.2 0.00 0.00 0.00 88 1010.1
20260506173440 52 196 7.0 18.2 0.00 0.00 0.00 87 1010.1
20260506172937 53 187 7.8 18.2 0.00 0.00 0.00 87 1010.2
20260506172435 52 200 8.7 18.2 0.00 0.00 0.00 88 1010.3
20260506171935 52 200 8.7 18.2 0.00 0.00 0.00 87 1010.3
20260506171436 53 222 8.7 19.1 0.00 0.00 0.00 87 1010.3
20260506171206 53 187 9.6 19.1 0.00 0.00 0.00 87 1010.2
20260506170432 53 208 7.8 15.6 0.00 0.00 0.00 87 1010.4
20260506165932 53 157 7.0 14.8 0.00 0.00 0.00 86 1010.5
20260506165703 53 201 7.0 14.8 0.00 0.00 0.00 86 1010.7
20260506165205 53 259 7.8 17.4 0.00 0.00 0.00 87 1011.0
20260506164432 53 221 7.8 17.4 0.00 0.00 0.00 87 1010.9
20260506163931 53 248 7.8 15.6 0.00 0.00 0.00 88 1010.9
20260506163432 53 84 8.7 15.6 0.00 0.00 0.00 88 1010.9
20260506162931 52 228 8.7 19.1 0.00 0.00 0.00 88 1011.0
20260506162703 52 196 8.7 19.1 0.00 0.00 0.00 88 1011.1
20260506161932 52 192 9.6 20.0 0.00 0.00 0.00 88 1011.1
20260506161429 52 202 10.4 22.6 0.00 0.00 0.00 89 1011.0
20260506160926 51 176 8.7 22.6 0.00 0.00 0.00 89 1011.0
20260506160427 51 202 7.8 16.5 0.00 0.00 0.00 89 1010.9
20260506155926 51 205 7.8 15.6 0.00 0.00 0.00 89 1010.8
20260506155426 50 225 7.8 15.6 0.00 0.00 0.00 89 1010.9